SILO ALERT LOG
| Silo ID | Alert Type | Alert Message | Silo Type | Points | Depth (mm) | Strength | Temperature (°C) | Humidity (%) | Height (mm) | Volume (㎥) | Weight (t) | Flag | Time |
|---|---|---|---|---|---|---|---|---|---|---|---|---|---|
| WJWJR01 | Humidity | 습도센서 측정값이 80% 초과 | 평 | 77 | 7660 | 1073 | 25.8 | 82.1 | -20 | -2.262 | 0 | 0 | 2026-07-15 22:26:01.000 |
| WJWJR01 | Humidity | 습도센서 측정값이 80% 초과 | 평 | 84 | 7680 | 1071 | 26.4 | 80.2 | -40 | -4.524 | 0 | 0 | 2026-07-15 21:25:57.000 |
| WJWJR01 | Humidity | 습도센서 측정값이 80% 초과 | 평 | 76 | 7640 | 1058 | 28.9 | 80.9 | 0 | 0 | 0 | 0 | 2026-07-15 13:25:58.000 |
| WJWJR01 | Humidity | 습도센서 측정값이 80% 초과 | 평 | 83 | 7680 | 1092 | 28.6 | 85.2 | -40 | -4.524 | 0 | 0 | 2026-07-15 12:25:59.000 |
| WJWJR01 | Humidity | 습도센서 측정값이 80% 초과 | 평 | 75 | 7640 | 1101 | 26.9 | 88.5 | 0 | 0 | 0 | 0 | 2026-07-15 11:26:00.000 |
| WJWJR01 | Humidity | 습도센서 측정값이 80% 초과 | 평 | 77 | 7660 | 1076 | 25.6 | 88.7 | -20 | -2.262 | 0 | 0 | 2026-07-15 10:25:59.000 |
| WJWJR01 | Humidity | 습도센서 측정값이 80% 초과 | 평 | 77 | 7660 | 1072 | 25.4 | 88.2 | -20 | -2.262 | 0 | 0 | 2026-07-15 09:25:59.000 |
| WJWJR01 | Humidity | 습도센서 측정값이 80% 초과 | 평 | 77 | 7640 | 1083 | 25.5 | 87.8 | 0 | 0 | 0 | 0 | 2026-07-15 08:26:01.000 |
| WJWJR01 | Humidity | 습도센서 측정값이 80% 초과 | 평 | 83 | 7700 | 1101 | 25.6 | 87.5 | -60 | -6.786 | 0 | 0 | 2026-07-15 07:25:59.000 |
| WJWJR01 | Humidity | 습도센서 측정값이 80% 초과 | 평 | 77 | 7660 | 1079 | 25.7 | 87 | -20 | -2.262 | 0 | 0 | 2026-07-15 06:26:02.000 |
| WJWJR01 | Humidity | 습도센서 측정값이 80% 초과 | 평 | 75 | 7650 | 1084 | 25.9 | 86.3 | -10 | -1.131 | 0 | 0 | 2026-07-15 05:26:02.000 |
| WJWJR01 | Humidity | 습도센서 측정값이 80% 초과 | 평 | 77 | 7640 | 1065 | 26 | 85.4 | 0 | 0 | 0 | 0 | 2026-07-15 04:26:00.000 |
| WJWJR01 | Humidity | 습도센서 측정값이 80% 초과 | 평 | 76 | 7720 | 1070 | 26.1 | 84.4 | -80 | -9.048 | 0 | 0 | 2026-07-15 03:26:01.000 |
| WJWJR01 | Humidity | 습도센서 측정값이 80% 초과 | 평 | 74 | 7670 | 1079 | 26.4 | 83.2 | -30 | -3.393 | 0 | 0 | 2026-07-15 02:26:01.000 |
| WJWJR01 | Humidity | 습도센서 측정값이 80% 초과 | 평 | 76 | 7650 | 1091 | 26.8 | 81.7 | -10 | -1.131 | 0 | 0 | 2026-07-15 01:25:58.000 |
| WJWJR01 | Humidity | 습도센서 측정값이 80% 초과 | 평 | 78 | 7590 | 1041 | 26.8 | 82.8 | 49 | 5.655 | 3.575 | 0 | 2026-07-14 08:26:00.000 |
| WJWJR05 | Humidity | 습도센서 측정값이 80% 초과 | 평 | 60 | 6310 | 2663 | 27.8 | 80.2 | 1420 | 160.598 | 101.53 | 0 | 2026-07-14 08:25:50.000 |
| WJWJR01 | Humidity | 습도센서 측정값이 80% 초과 | 평 | 74 | 7610 | 1161 | 25.7 | 84.4 | 29 | 3.393 | 2.145 | 0 | 2026-07-14 07:25:59.000 |
| WJWJR01 | Humidity | 습도센서 측정값이 80% 초과 | 평 | 76 | 7590 | 1177 | 25.5 | 83.7 | 49 | 5.655 | 3.575 | 0 | 2026-07-14 06:25:58.000 |
| WJWJR01 | Humidity | 습도센서 측정값이 80% 초과 | 평 | 76 | 7600 | 1175 | 25.8 | 83.3 | 40 | 4.524 | 2.86 | 0 | 2026-07-14 05:26:04.000 |
[첫 페이지] [30] [31] [32] [33] 34 [35] [36] [37] [38] [마지막 페이지]